Overview Statistics Trail Chart Weather Telemetry Raw packets
 

This is the latest recevied weather packets stored in our database for station/object 4S6DRJ-13. If no packets are shown the sender has not sent any weather packets the latest 10 day(s).

<< 19 20 21 22 23 24 25 >>
Time Temp. Humidity Pressure Rain* Wind** Luminosity Snow
1788415279 31.11° C 68% 1009.9 hPa 0 mm 2.68 m/s, 7° 1125 W/m² -
1788415218 31.67° C 69% 1009.7 hPa 0 mm 2.24 m/s, 259° 1125 W/m² -
1788415156 31.67° C 68% 1009.7 hPa 0 mm 2.68 m/s, 251° 1129 W/m² -
1788415096 31.67° C 69% 1009.8 hPa 0 mm 2.24 m/s, 6° 332 W/m² -
1788415034 31.67° C 69% 1009.6 hPa 0 mm 1.34 m/s, 230° 1123 W/m² -
1788414974 31.67° C 69% 1009.8 hPa 0 mm 0.45 m/s, 162° 1123 W/m² -
1788414912 31.67° C 68% 1009.9 hPa 0 mm 2.68 m/s, 319° 1107 W/m² -
1788414852 31.67° C 68% 1009.8 hPa 0 mm 3.58 m/s, 314° 384 W/m² -
1788414791 31.67° C 68% 1009.9 hPa 0 mm 4.02 m/s, 324° 1118 W/m² -
1788414730 31.67° C 68% 1009.7 hPa 0 mm 2.68 m/s, 263° 1129 W/m² -
1788414668 31.67° C 68% 1009.7 hPa 0 mm 1.34 m/s, 349° 1125 W/m² -
1788414607 31.67° C 69% 1010 hPa 0 mm 1.79 m/s, 311° 1124 W/m² -
1788414558 31.67° C 70% 1009.9 hPa 0 mm 1.79 m/s, 307° 1124 W/m² -
1788414485 31.11° C 69% 1009.7 hPa 0 mm 3.58 m/s, 229° 1124 W/m² -
1788414425 31.11° C 70% 1010 hPa 0 mm 0.89 m/s, 19° 1113 W/m² -
1788414364 31.11° C 70% 1010 hPa 0 mm 2.24 m/s, 25° 1112 W/m² -
1788414303 31.11° C 70% 1010 hPa 0 mm 0.89 m/s, 245° 1123 W/m² -
1788414241 31.11° C 69% 1010 hPa 0 mm 1.34 m/s, 187° 1121 W/m² -
1788414181 31.11° C 69% 1009.9 hPa 0 mm 2.68 m/s, 290° 1121 W/m² -
1788414120 31.11° C 68% 1009.9 hPa 0 mm 2.68 m/s, 303° 1124 W/m² -
1788414058 31.11° C 67% 1010 hPa 0 mm 2.68 m/s, 215° 1108 W/m² -
1788413998 31.11° C 69% 1009.9 hPa 0 mm 1.79 m/s, 200° 1126 W/m² -
1788413937 31.11° C 68% 1009.9 hPa 0 mm 2.24 m/s, 358° 1124 W/m² -
1788413876 31.11° C 69% 1010 hPa 0 mm 1.79 m/s, 205° 246 W/m² -
1788413814 31.11° C 70% 1010.1 hPa 0 mm 2.68 m/s, 310° 1120 W/m² -

* Rain latest hour (hover to see other rain measurements)
** Current wind speed in m/s (hover to see current wind gust speed)